timestamp,wind_dir_avg,wind_spd_max_dir,wind_spd_avg,wind_spd_gust,battery_voltage,lat,long
2018-11-26 00:00:00+00:00,340.0,341.0,12.47,14.58,,47.59359,-54.27349
2018-11-26 00:10:00+00:00,343.0,347.0,12.32,15.57,,47.59359,-54.27349
2018-11-26 00:20:00+00:00,338.0,342.0,11.93,14.38,,47.59359,-54.27349
2018-11-26 00:30:00+00:00,336.0,335.0,9.75,11.41,,47.59359,-54.27349
2018-11-26 00:40:00+00:00,353.0,355.0,9.64,10.69,,47.59359,-54.27349
2018-11-26 00:50:00+00:00,351.0,347.0,8.91,10.03,,47.59359,-54.27349
2018-11-26 01:00:00+00:00,350.0,350.0,9.4,11.23,,47.59359,-54.27349
2018-11-26 01:10:00+00:00,348.0,349.0,9.4,11.09,,47.59359,-54.27349
2018-11-26 01:20:00+00:00,351.0,352.0,10.36,11.8,,47.59359,-54.27349
2018-11-26 01:30:00+00:00,356.0,0.0,10.07,12.56,,47.59359,-54.27349
2018-11-26 01:40:00+00:00,351.0,344.0,6.84,8.82,,47.59359,-54.27349
2018-11-26 01:50:00+00:00,349.0,340.0,7.34,9.14,,47.59359,-54.27349
2018-11-26 02:00:00+00:00,353.0,353.0,8.34,9.37,,47.59359,-54.27349
2018-11-26 02:10:00+00:00,346.0,353.0,5.94,6.8,,47.59359,-54.27349
2018-11-26 02:20:00+00:00,344.0,345.0,5.46,7.23,,47.59359,-54.27349
2018-11-26 02:30:00+00:00,349.0,345.0,4.53,5.58,,47.59359,-54.27349
2018-11-26 02:40:00+00:00,13.0,15.0,5.92,7.24,,47.59359,-54.27349
2018-11-26 02:50:00+00:00,11.0,15.0,7.69,9.91,,47.59359,-54.27349
2018-11-26 03:00:00+00:00,18.0,13.0,4.62,5.53,,47.59359,-54.27349
2018-11-26 03:10:00+00:00,18.0,25.0,8.54,10.08,,47.59359,-54.27349
2018-11-26 03:20:00+00:00,9.0,3.0,10.14,11.9,,47.59359,-54.27349
2018-11-26 03:30:00+00:00,13.0,6.0,8.22,10.02,,47.59359,-54.27349
2018-11-26 03:40:00+00:00,23.0,30.0,7.25,8.43,,47.59359,-54.27349
2018-11-26 03:50:00+00:00,16.0,18.0,9.88,11.88,,47.59359,-54.27349
2018-11-26 04:00:00+00:00,24.0,16.0,7.2,8.25,,47.59359,-54.27349
2018-11-26 04:10:00+00:00,16.0,15.0,8.15,9.79,,47.59359,-54.27349
2018-11-26 04:20:00+00:00,18.0,14.0,6.81,8.46,,47.59359,-54.27349
2018-11-26 04:30:00+00:00,13.0,19.0,7.56,8.68,,47.59359,-54.27349
2018-11-26 04:40:00+00:00,18.0,20.0,9.18,10.21,,47.59359,-54.27349
2018-11-26 04:50:00+00:00,14.0,11.0,7.66,9.33,,47.59359,-54.27349
2018-11-26 05:00:00+00:00,23.0,21.0,4.51,5.52,,47.59359,-54.27349
2018-11-26 05:10:00+00:00,47.0,53.0,5.27,6.12,,47.59359,-54.27349
2018-11-26 05:20:00+00:00,37.0,40.0,6.03,6.8,,47.59359,-54.27349
2018-11-26 05:30:00+00:00,38.0,40.0,7.35,8.94,,47.59359,-54.27349
2018-11-26 05:40:00+00:00,31.0,36.0,6.92,7.77,,47.59359,-54.27349
2018-11-26 05:50:00+00:00,36.0,36.0,8.59,9.67,,47.59359,-54.27349
2018-11-26 06:00:00+00:00,39.0,43.0,10.25,12.8,,47.59359,-54.27349
2018-11-26 06:10:00+00:00,36.0,41.0,9.12,11.38,,47.59359,-54.27349
2018-11-26 06:20:00+00:00,45.0,50.0,12.4,15.17,,47.59359,-54.27349
2018-11-26 06:30:00+00:00,40.0,38.0,12.5,14.09,,47.59359,-54.27349
2018-11-26 06:40:00+00:00,45.0,46.0,10.79,12.58,,47.59359,-54.27349
2018-11-26 06:50:00+00:00,41.0,47.0,10.35,13.15,,47.59359,-54.27349
2018-11-26 07:00:00+00:00,46.0,50.0,9.04,10.56,,47.59359,-54.27349
2018-11-26 07:10:00+00:00,46.0,52.0,9.4,10.95,,47.59359,-54.27349
2018-11-26 07:20:00+00:00,47.0,49.0,10.56,11.92,,47.59359,-54.27349
2018-11-26 07:30:00+00:00,42.0,45.0,10.23,12.02,,47.59359,-54.27349
2018-11-26 07:40:00+00:00,40.0,42.0,8.27,9.28,,47.59359,-54.27349
2018-11-26 07:50:00+00:00,39.0,37.0,7.98,9.08,,47.59359,-54.27349
2018-11-26 08:00:00+00:00,43.0,47.0,6.96,7.92,,47.59359,-54.27349
2018-11-26 08:10:00+00:00,48.0,55.0,8.23,10.4,,47.59359,-54.27349
2018-11-26 08:20:00+00:00,52.0,56.0,8.47,10.19,,47.59359,-54.27349
2018-11-26 08:30:00+00:00,38.0,37.0,9.14,11.38,,47.59359,-54.27349
2018-11-26 08:40:00+00:00,45.0,36.0,9.89,12.67,,47.59359,-54.27349
2018-11-26 08:50:00+00:00,52.0,55.0,10.85,13.21,,47.59359,-54.27349
2018-11-26 09:00:00+00:00,53.0,46.0,12.65,14.52,,47.59359,-54.27349
2018-11-26 09:10:00+00:00,58.0,59.0,10.33,11.2,,47.59359,-54.27349
2018-11-26 09:20:00+00:00,56.0,50.0,9.24,10.69,,47.59359,-54.27349
2018-11-26 09:30:00+00:00,55.0,54.0,10.78,12.06,,47.59359,-54.27349
2018-11-26 09:40:00+00:00,53.0,51.0,10.56,11.78,,47.59359,-54.27349
2018-11-26 09:50:00+00:00,55.0,54.0,10.08,11.58,,47.59359,-54.27349
2018-11-26 10:00:00+00:00,51.0,56.0,11.95,13.48,,47.59359,-54.27349
2018-11-26 10:10:00+00:00,53.0,54.0,11.92,15.01,,47.59359,-54.27349
2018-11-26 10:20:00+00:00,56.0,53.0,11.12,12.24,,47.59359,-54.27349
2018-11-26 10:30:00+00:00,52.0,52.0,9.51,10.98,,47.59359,-54.27349
2018-11-26 10:40:00+00:00,57.0,62.0,9.6,10.96,,47.59359,-54.27349
2018-11-26 10:50:00+00:00,54.0,50.0,7.65,9.17,,47.59359,-54.27349
2018-11-26 11:00:00+00:00,56.0,56.0,8.87,10.48,,47.59359,-54.27349
2018-11-26 11:10:00+00:00,53.0,55.0,7.97,8.7,,47.59359,-54.27349
2018-11-26 11:20:00+00:00,56.0,57.0,8.43,9.62,,47.59359,-54.27349
2018-11-26 11:30:00+00:00,59.0,66.0,7.93,9.07,,47.59359,-54.27349
2018-11-26 11:40:00+00:00,56.0,56.0,8.21,9.21,,47.59359,-54.27349
2018-11-26 11:50:00+00:00,54.0,58.0,7.62,8.47,,47.59359,-54.27349
2018-11-26 12:00:00+00:00,45.0,47.0,6.29,6.95,,47.59359,-54.27349
2018-11-26 12:10:00+00:00,44.0,42.0,8.03,8.81,,47.59359,-54.27349
2018-11-26 12:20:00+00:00,42.0,45.0,8.2,9.29,,47.59359,-54.27349
2018-11-26 12:30:00+00:00,48.0,46.0,8.32,9.52,,47.59359,-54.27349
2018-11-26 12:40:00+00:00,48.0,45.0,7.66,8.43,,47.59359,-54.27349
2018-11-26 12:50:00+00:00,46.0,46.0,9.85,11.25,,47.59359,-54.27349
2018-11-26 13:00:00+00:00,46.0,38.0,8.38,9.43,,47.59359,-54.27349
2018-11-26 13:10:00+00:00,50.0,54.0,10.32,12.22,,47.59359,-54.27349
2018-11-26 13:20:00+00:00,51.0,53.0,9.61,10.97,,47.59359,-54.27349
2018-11-26 13:30:00+00:00,49.0,51.0,10.05,11.55,,47.59359,-54.27349
2018-11-26 13:40:00+00:00,46.0,43.0,9.82,10.99,,47.59359,-54.27349
2018-11-26 13:50:00+00:00,44.0,44.0,10.63,11.83,,47.59359,-54.27349
2018-11-26 14:00:00+00:00,50.0,55.0,9.93,11.46,,47.59359,-54.27349
2018-11-26 14:10:00+00:00,47.0,52.0,8.88,10.79,,47.59359,-54.27349
2018-11-26 14:20:00+00:00,41.0,34.0,10.14,11.74,,47.59359,-54.27349
2018-11-26 14:30:00+00:00,42.0,42.0,10.3,11.43,,47.59359,-54.27349
2018-11-26 14:40:00+00:00,39.0,40.0,10.26,11.9,,47.59359,-54.27349
2018-11-26 14:50:00+00:00,51.0,50.0,9.18,10.61,,47.59359,-54.27349
2018-11-26 15:00:00+00:00,51.0,53.0,9.95,11.2,,47.59359,-54.27349
2018-11-26 15:10:00+00:00,52.0,51.0,10.52,12.03,,47.59359,-54.27349
2018-11-26 15:20:00+00:00,53.0,55.0,11.87,13.52,,47.59359,-54.27349
2018-11-26 15:30:00+00:00,50.0,52.0,11.58,12.45,,47.59359,-54.27349
2018-11-26 15:40:00+00:00,44.0,46.0,12.31,13.3,,47.59359,-54.27349
2018-11-26 15:50:00+00:00,51.0,50.0,11.22,12.71,,47.59359,-54.27349
2018-11-26 16:00:00+00:00,46.0,52.0,11.21,13.09,,47.59359,-54.27349
2018-11-26 16:10:00+00:00,51.0,49.0,12.16,13.36,,47.59359,-54.27349
2018-11-26 16:20:00+00:00,50.0,49.0,11.52,12.9,,47.59359,-54.27349
2018-11-26 16:30:00+00:00,54.0,51.0,12.76,14.2,,47.59359,-54.27349
2018-11-26 16:40:00+00:00,52.0,50.0,13.01,14.14,,47.59359,-54.27349
2018-11-26 16:50:00+00:00,51.0,54.0,11.8,13.81,,47.59359,-54.27349
2018-11-26 17:00:00+00:00,49.0,47.0,12.03,13.29,,47.59359,-54.27349
2018-11-26 17:10:00+00:00,52.0,52.0,11.05,12.66,,47.59359,-54.27349
2018-11-26 17:20:00+00:00,49.0,49.0,10.46,11.6,,47.59359,-54.27349
2018-11-26 17:30:00+00:00,44.0,40.0,10.05,11.13,,47.59359,-54.27349
2018-11-26 17:40:00+00:00,41.0,40.0,9.54,10.73,,47.59359,-54.27349
2018-11-26 17:50:00+00:00,40.0,43.0,11.93,13.16,,47.59359,-54.27349
2018-11-26 18:00:00+00:00,46.0,50.0,11.87,13.15,,47.59359,-54.27349
2018-11-26 18:10:00+00:00,51.0,53.0,11.52,13.15,,47.59359,-54.27349
2018-11-26 18:20:00+00:00,43.0,45.0,10.57,11.98,,47.59359,-54.27349
2018-11-26 18:30:00+00:00,48.0,56.0,9.25,10.77,,47.59359,-54.27349
2018-11-26 18:40:00+00:00,43.0,39.0,9.6,11.53,,47.59359,-54.27349
2018-11-26 18:50:00+00:00,37.0,33.0,9.31,10.87,,47.59359,-54.27349
2018-11-26 19:00:00+00:00,42.0,43.0,10.4,11.61,,47.59359,-54.27349
2018-11-26 19:10:00+00:00,41.0,41.0,10.48,11.53,,47.59359,-54.27349
2018-11-26 19:20:00+00:00,44.0,41.0,10.98,12.42,,47.59359,-54.27349
2018-11-26 19:30:00+00:00,42.0,46.0,10.0,12.06,,47.59359,-54.27349
2018-11-26 19:40:00+00:00,40.0,38.0,9.75,11.82,,47.59359,-54.27349
2018-11-26 19:50:00+00:00,37.0,37.0,9.74,11.26,,47.59359,-54.27349
2018-11-26 20:00:00+00:00,38.0,38.0,10.86,12.32,,47.59359,-54.27349
2018-11-26 20:10:00+00:00,39.0,43.0,11.09,12.77,,47.59359,-54.27349
2018-11-26 20:20:00+00:00,39.0,38.0,11.14,12.24,,47.59359,-54.27349
2018-11-26 20:30:00+00:00,42.0,44.0,9.68,10.89,,47.59359,-54.27349
2018-11-26 20:40:00+00:00,38.0,38.0,8.83,10.56,,47.59359,-54.27349
2018-11-26 20:50:00+00:00,34.0,35.0,7.79,9.13,,47.59359,-54.27349
2018-11-26 21:00:00+00:00,36.0,35.0,7.85,8.84,,47.59359,-54.27349
2018-11-26 21:10:00+00:00,32.0,32.0,9.4,10.43,,47.59359,-54.27349
2018-11-26 21:20:00+00:00,37.0,28.0,9.21,11.13,,47.59359,-54.27349
2018-11-26 21:30:00+00:00,37.0,44.0,8.78,9.8,,47.59359,-54.27349
2018-11-26 21:40:00+00:00,35.0,36.0,10.0,11.2,,47.59359,-54.27349
2018-11-26 21:50:00+00:00,28.0,31.0,8.16,9.67,,47.59359,-54.27349
2018-11-26 22:00:00+00:00,33.0,41.0,7.82,8.95,,47.59359,-54.27349
2018-11-26 22:10:00+00:00,28.0,26.0,7.85,8.95,,47.59359,-54.27349
2018-11-26 22:20:00+00:00,28.0,31.0,6.63,7.66,,47.59359,-54.27349
2018-11-26 22:30:00+00:00,26.0,30.0,6.91,7.99,,47.59359,-54.27349
2018-11-26 22:40:00+00:00,34.0,36.0,6.76,8.5,,47.59359,-54.27349
2018-11-26 22:50:00+00:00,35.0,37.0,8.54,9.48,,47.59359,-54.27349
2018-11-26 23:00:00+00:00,29.0,27.0,7.15,8.19,,47.59359,-54.27349
2018-11-26 23:10:00+00:00,33.0,36.0,8.27,9.24,,47.59359,-54.27349
2018-11-26 23:20:00+00:00,35.0,38.0,7.04,7.86,,47.59359,-54.27349
2018-11-26 23:30:00+00:00,30.0,30.0,6.51,7.49,,47.59359,-54.27349
2018-11-26 23:40:00+00:00,17.0,19.0,6.86,8.31,,47.59359,-54.27349
2018-11-26 23:50:00+00:00,17.0,20.0,7.58,8.4,,47.59359,-54.27349
